Seadream 1 — C6PW8 — position and weather

sailwx.info

Track history (hours):
 
Tides and Currents Weather Stations Pressure Air Temp Water Temp Dewpoint Dewpoint Depression Visibility Wind Speed Wind Dir Waves Ship Positions

Seadream 1

Last reported at 2014-Oct-25 21:15 UTC. Time now 2014-Nov-25 22:03 UTC.
Position N 35°57' W 005°34'.
Warning: this ship's position is 31 days out of date.

Length 105 m; draft 4.4 m.

Type: Ship. MMSI: 308908000.

Date/timePositionNaut miles runAvg speedWind from/ knotsBaromVisibWave heightAir tempDewpointWater temp
2014-Oct-25 21:15N 35°57' W 005°34'913.3
2014-Oct-25 20:32N 36°01' W 005°24'  
2014-Oct-23 11:29N 37°17' W 000°58'1111.2
2014-Oct-23 10:32N 37°24' W 000°48'1515.4
2014-Oct-23 09:33N 37°34' W 000°34'1515.1
2014-Oct-23 08:33N 37°47' W 000°24'1515.3
2014-Oct-23 07:33N 37°60' W 000°13'23015.1
2014-Oct-22 16:23N 41°20' E 002°12'11 0.5
2014-Oct-21 16:06N 41°25' E 002°26'1415.1
2014-Oct-21 15:11N 41°31' E 002°42'1015.0
2014-Oct-21 14:32N 41°35' E 002°54'1715.6
2014-Oct-21 13:27N 41°43' E 003°14'1615.0
2014-Oct-21 12:23N 41°50' E 003°33'1315.4
2014-Oct-21 11:33N 41°56' E 003°48'1514.7
2014-Oct-21 10:33N 42°03' E 004°06'1514.7
2014-Oct-21 09:33N 42°10' E 004°23'1514.6
2014-Oct-21 08:33N 42°17' E 004°41'1715.0
2014-Oct-21 07:25N 42°25' E 005°01'7715.1
2014-Oct-21 02:16N 42°60' E 006°35'1115.7
2014-Oct-21 01:34N 43°08' E 006°45'1615.9
2014-Oct-21 00:34N 43°21' E 006°59'1615.6
2014-Oct-20 23:33N 43°33' E 007°13'16 4.8
2014-Oct-20 20:18N 43°44' E 007°27'0 0.0
2014-Oct-20 06:12N 43°44' E 007°27'4910.3
2014-Oct-20 01:26N 43°58' E 008°33'1011.1
2014-Oct-20 00:33N 44°03' E 008°44'1111.3
2014-Oct-19 23:33N 44°08' E 008°58'1312.7
2014-Oct-19 22:34N 44°15' E 009°13'4 4.0
2014-Oct-19 21:30N 44°19' E 009°14'0 0.0
2014-Oct-19 20:21N 44°19' E 009°14'0 0.0
2014-Oct-19 19:22N 44°19' E 009°14'0 0.0
2014-Oct-19 17:12N 44°19' E 009°14'0 0.0
2014-Oct-19 16:33N 44°19' E 009°14'0 0.0
2014-Oct-19 15:31N 44°19' E 009°14'0 0.0
2014-Oct-19 14:28N 44°19' E 009°14'0 0.0
2014-Oct-19 13:31N 44°19' E 009°14'0 0.0
2014-Oct-19 12:29N 44°19' E 009°14'0 0.0
2014-Oct-19 11:32N 44°19' E 009°14'0 0.0
2014-Oct-19 10:29N 44°19' E 009°14'0 0.0
2014-Oct-19 09:32N 44°19' E 009°14'0 0.2
2014-Oct-19 08:33N 44°19' E 009°14'9 9.0
2014-Oct-19 07:34N 44°11' E 009°20'10 9.9
2014-Oct-19 06:34N 44°01' E 009°25'1010.2
2014-Oct-19 05:33N 43°52' E 009°29'1010.3
2014-Oct-19 04:34N 43°42' E 009°35'1010.3
2014-Oct-19 03:34N 43°32' E 009°39'1110.9
2014-Oct-19 02:33N 43°22' E 009°45'1110.6
2014-Oct-19 01:34N 43°13' E 009°52'1110.6
2014-Oct-19 00:31N 43°04' E 009°60'1110.5
2014-Oct-18 23:27N 42°52' E 010°01'1210.3
2014-Oct-18 22:21N 42°41' E 010°06'1112.7
2014-Oct-18 21:29N 42°36' E 010°19'1613.8
2014-Oct-18 20:21N 42°30' E 010°38'1813.8
2014-Oct-18 19:05N 42°23' E 011°00'  
Track history (hours):
 
Tides and Currents Weather Stations Pressure Air Temp Water Temp Dewpoint Dewpoint Depression Visibility Wind Speed Wind Dir Waves Ship Positions

Seadream 1

Last reported at 2014-Oct-25 21:15 UTC. Time now 2014-Nov-25 22:03 UTC.
Position N 35°57' W 005°34'.
Warning: this ship's position is 31 days out of date.

Length 105 m; draft 4.4 m.

Type: Ship. MMSI: 308908000.

Date/timePositionNaut miles runAvg speedWind from/ knotsBaromVisibWave heightAir tempDewpointWater temp
2014-Oct-25 21:15N 35°57' W 005°34'913.3
2014-Oct-25 20:32N 36°01' W 005°24'  
2014-Oct-23 11:29N 37°17' W 000°58'1111.2
2014-Oct-23 10:32N 37°24' W 000°48'1515.4
2014-Oct-23 09:33N 37°34' W 000°34'1515.1
2014-Oct-23 08:33N 37°47' W 000°24'1515.3
2014-Oct-23 07:33N 37°60' W 000°13'23015.1
2014-Oct-22 16:23N 41°20' E 002°12'11 0.5
2014-Oct-21 16:06N 41°25' E 002°26'1415.1
2014-Oct-21 15:11N 41°31' E 002°42'1015.0
2014-Oct-21 14:32N 41°35' E 002°54'1715.6
2014-Oct-21 13:27N 41°43' E 003°14'1615.0
2014-Oct-21 12:23N 41°50' E 003°33'1315.4
2014-Oct-21 11:33N 41°56' E 003°48'1514.7
2014-Oct-21 10:33N 42°03' E 004°06'1514.7
2014-Oct-21 09:33N 42°10' E 004°23'1514.6
2014-Oct-21 08:33N 42°17' E 004°41'1715.0
2014-Oct-21 07:25N 42°25' E 005°01'7715.1
2014-Oct-21 02:16N 42°60' E 006°35'1115.7
2014-Oct-21 01:34N 43°08' E 006°45'1615.9
2014-Oct-21 00:34N 43°21' E 006°59'1615.6
2014-Oct-20 23:33N 43°33' E 007°13'16 4.8
2014-Oct-20 20:18N 43°44' E 007°27'0 0.0
2014-Oct-20 06:12N 43°44' E 007°27'4910.3
2014-Oct-20 01:26N 43°58' E 008°33'1011.1
2014-Oct-20 00:33N 44°03' E 008°44'1111.3
2014-Oct-19 23:33N 44°08' E 008°58'1312.7
2014-Oct-19 22:34N 44°15' E 009°13'4 4.0
2014-Oct-19 21:30N 44°19' E 009°14'0 0.0
2014-Oct-19 20:21N 44°19' E 009°14'0 0.0
2014-Oct-19 19:22N 44°19' E 009°14'0 0.0
2014-Oct-19 17:12N 44°19' E 009°14'0 0.0
2014-Oct-19 16:33N 44°19' E 009°14'0 0.0
2014-Oct-19 15:31N 44°19' E 009°14'0 0.0
2014-Oct-19 14:28N 44°19' E 009°14'0 0.0
2014-Oct-19 13:31N 44°19' E 009°14'0 0.0
2014-Oct-19 12:29N 44°19' E 009°14'0 0.0
2014-Oct-19 11:32N 44°19' E 009°14'0 0.0
2014-Oct-19 10:29N 44°19' E 009°14'0 0.0
2014-Oct-19 09:32N 44°19' E 009°14'0 0.2
2014-Oct-19 08:33N 44°19' E 009°14'9 9.0
2014-Oct-19 07:34N 44°11' E 009°20'10 9.9
2014-Oct-19 06:34N 44°01' E 009°25'1010.2
2014-Oct-19 05:33N 43°52' E 009°29'1010.3
2014-Oct-19 04:34N 43°42' E 009°35'1010.3
2014-Oct-19 03:34N 43°32' E 009°39'1110.9
2014-Oct-19 02:33N 43°22' E 009°45'1110.6
2014-Oct-19 01:34N 43°13' E 009°52'1110.6
2014-Oct-19 00:31N 43°04' E 009°60'1110.5
2014-Oct-18 23:27N 42°52' E 010°01'1210.3
2014-Oct-18 22:21N 42°41' E 010°06'1112.7
2014-Oct-18 21:29N 42°36' E 010°19'1613.8
2014-Oct-18 20:21N 42°30' E 010°38'1813.8
2014-Oct-18 19:05N 42°23' E 011°00'  

Dump ship's entire track history